Вернуться в каталог

SL-14 R/B

АктивенPO
NORAD 23447·ROCKET BODY·🇷🇺 Russia

Запущен Dec 26, 1994 с Plesetsk Cosmodrome

Loading…

Ближайшие Пролёты (ближайшие 24 часа)

TLE

СвежийSource: Space-Track

Эпоха: Sep 14, 2026, 04:56 UTC

1 23447U 94086G   26257.20617713  .00000039  00000-0  17623-3 0  9990
2 23447  82.5738 349.6434 0036701 250.4494 134.5535 12.55516938453433

Отслеживайте SL-14 R/B в реальном времени с AllMySat

Download on the App Store